FW5313 Weather Reports


time (UTC)temp
C
wind
direction
speed
KPH
gust
KPH
rain 1hr
cm
rain 24hr
cm
rain mn
cm
humidity
%
barometer
mb
20260507104551 3 51 0.0 8.0 0.00 1.60 0.00 96 1006.1
20260507104044 3 311 1.6 8.0 0.00 1.60 0.00 97 1006.2
20260507103545 3 0 0.0 1.6 0.00 1.60 0.00 97 1006.1
20260507103048 3 330 0.0 1.6 0.00 1.60 0.00 98 1006.0
20260507102544 3 0 0.0 1.6 0.00 1.60 0.00 97 1006.2
20260507102047 3 0 0.0 1.6 0.00 1.60 0.00 98 1006.0
20260507101601 3 0 0.0 1.6 0.00 1.60 0.00 97 1005.9
20260507101045 3 193 0.0 0.0 0.00 1.60 0.00 97 1005.8
20260507100545 3 0 0.0 0.0 0.00 1.60 0.00 97 1005.9
20260507100053 3 194 0.0 0.0 0.00 1.60 0.00 97 1005.8
20260507095544 3 0 0.0 0.0 0.00 1.60 0.00 97 1005.8
20260507095041 3 0 0.0 0.0 0.00 1.60 0.00 97 1005.7
20260507094552 3 194 0.0 0.0 0.00 1.60 0.00 97 1005.8
20260507094046 3 0 0.0 0.0 0.00 1.60 0.00 97 1005.9
20260507093542 3 0 0.0 1.6 0.00 1.60 0.00 98 1005.7
20260507093056 3 0 0.0 1.6 0.00 1.60 0.00 98 1005.8
20260507092545 3 347 0.0 1.6 0.00 1.60 0.00 98 1006.0
20260507092044 3 0 0.0 1.6 0.00 1.60 0.00 98 1006.0
20260507091556 3 0 0.0 1.6 0.00 1.60 0.00 98 1006.1
20260507091045 3 0 0.0 1.6 0.00 1.60 0.00 98 1005.9
20260507090545 3 0 0.0 1.6 0.00 1.60 0.00 98 1005.9
20260507090057 3 0 0.0 3.2 0.00 1.60 0.00 98 1006.2
20260507085545 3 0 0.0 3.2 0.00 1.60 0.00 98 1006.3
20260507085045 3 355 0.0 1.6 0.00 1.60 0.00 98 1006.2
20260507084549 3 0 0.0 1.6 0.00 1.60 0.00 98 1006.0
20260507084045 3 0 0.0 1.6 0.00 1.60 0.00 98 1005.9
20260507083541 3 0 0.0 1.6 0.00 1.60 0.00 98 1006.0
20260507083053 3 0 0.0 1.6 0.00 1.60 0.00 98 1006.1
20260507082542 3 67 0.0 3.2 0.00 1.60 0.00 98 1006.1
20260507082041 3 66 0.0 3.2 0.00 1.60 0.00 98 1006.2
20260507081554 3 66 0.0 3.2 0.00 1.60 0.00 98 1006.3
20260507081041 3 0 0.0 3.2 0.00 1.60 0.00 98 1006.4
20260507080545 3 0 0.0 3.2 0.00 1.60 0.00 98 1006.5
20260507080050 3 0 0.0 3.2 0.00 1.60 0.00 98 1006.5
20260507075542 3 0 0.0 1.6 0.00 1.60 0.00 98 1006.4
20260507075043 3 0 0.0 1.6 0.00 1.60 0.00 98 1006.3
20260507074555 3 63 0.0 1.6 0.00 1.60 0.00 98 1006.1
20260507074044 3 63 0.0 1.6 0.00 1.60 0.00 98 1006.0
20260507073545 3 0 0.0 1.6 0.00 1.60 0.00 98 1006.0
20260507073054 3 63 0.0 1.6 0.00 1.60 0.00 98 1005.9
20260507072546 3 0 0.0 1.6 0.00 1.60 0.00 98 1006.0
20260507072046 3 0 0.0 1.6 0.00 1.60 0.00 98 1005.9
20260507071553 3 0 0.0 1.6 0.00 1.60 0.00 98 1005.9
20260507071047 3 0 0.0 1.6 0.00 1.60 0.00 97 1005.8
20260507070547 3 63 0.0 1.6 0.00 1.60 0.00 97 1005.8
20260507070051 3 63 0.0 1.6 0.00 1.60 0.00 97 1005.7
20260507065547 3 63 1.6 1.6 0.00 1.60 0.00 97 1005.7
20260507065045 3 63 0.0 1.6 0.00 1.60 0.00 97 1005.7
20260507064605 3 63 0.0 1.6 0.00 1.60 0.00 98 1005.9
20260507064048 3 0 0.0 1.6 0.00 1.60 0.00 97 1006.0
20260507063545 3 63 0.0 1.6 0.00 1.60 0.00 98 1005.8
20260507063054 3 63 0.0 1.6 0.00 1.60 0.00 97 1005.8
20260507062546 3 63 0.0 1.6 0.00 1.60 0.00 97 1005.8
20260507062046 3 63 0.0 1.6 0.00 1.60 0.00 97 1005.9
20260507061549 3 63 0.0 1.6 0.00 1.60 0.00 98 1005.9
20260507061045 3 63 0.0 1.6 0.00 1.60 0.00 97 1005.9
20260507060547 3 63 0.0 1.6 0.00 1.60 0.00 97 1005.8
20260507060053 3 63 0.0 1.6 0.00 1.60 0.00 98 1006.1
20260507055546 3 63 0.0 1.6 0.00 1.75 0.00 97 1006.2
20260507055046 3 0 0.0 1.6 0.00 1.75 0.00 98 1006.1
20260507054555 3 0 0.0 1.6 0.00 1.75 0.00 97 1006.1
20260507054045 3 0 0.0 1.6 0.00 1.75 0.00 97 1006.0
20260507053548 3 63 0.0 1.6 0.00 1.75 0.00 98 1006.6
20260507053048 3 0 0.0 1.6 0.00 1.75 0.00 98 1006.4
20260507052550 3 63 0.0 1.6 0.00 1.75 0.00 98 1006.4
20260507052048 3 63 0.0 1.6 0.00 1.75 0.00 97 1006.2
20260507051551 3 0 0.0 1.6 0.00 1.75 0.00 97 1006.5
20260507051046 3 0 0.0 3.2 0.00 1.75 0.00 98 1006.6
20260507050546 3 0 0.0 3.2 0.00 1.75 0.00 97 1006.4
20260507050050 3 0 0.0 3.2 0.00 1.75 0.00 98 1006.5
20260507045549 3 0 0.0 0.0 0.00 1.85 0.00 97 1006.4
20260507045044 3 0 0.0 0.0 0.00 1.85 0.00 97 1006.4
20260507044551 3 0 0.0 1.6 0.00 1.85 0.00 97 1006.4
20260507044046 3 0 0.0 3.2 0.00 1.85 0.00 97 1006.5
20260507043547 3 0 0.0 3.2 0.00 1.85 0.00 97 1006.4
20260507043052 3 0 0.0 1.6 0.00 1.85 0.00 97 1006.5
20260507042544 3 0 0.0 0.0 0.00 1.85 0.00 97 1006.6
20260507042045 3 0 0.0 0.0 0.00 1.85 0.00 97 1006.5
20260507041557 3 0 0.0 1.6 0.00 1.85 0.00 97 1006.5
20260507041047 3 0 0.0 1.6 0.00 1.85 0.00 97 1006.5
20260507040547 3 36 0.0 1.6 0.00 1.85 0.00 97 1006.6
20260507040056 3 39 0.0 1.6 0.00 1.85 0.00 97 1006.6
20260507035547 3 0 0.0 1.6 0.00 1.88 1.85 97 1006.5
20260507035047 3 0 0.0 1.6 0.00 1.88 1.85 97 1006.6
20260507034555 3 0 0.0 1.6 0.00 1.88 1.85 97 1006.4
20260507034044 4 39 0.0 0.0 0.00 1.88 1.85 97 1006.2
20260507033547 4 0 0.0 0.0 0.00 1.88 1.85 97 1006.3
20260507033050 4 0 0.0 0.0 0.00 1.88 1.85 97 1006.4
20260507032548 4 0 0.0 0.0 0.00 1.88 1.85 97 1006.6
20260507032044 4 0 0.0 0.0 0.00 1.88 1.85 97 1006.6
20260507031552 4 0 0.0 0.0 0.00 1.88 1.85 97 1006.4
20260507031046 4 0 0.0 0.0 0.00 1.88 1.85 97 1006.6
20260507030547 4 0 0.0 0.0 0.00 1.88 1.85 97 1006.6
20260507025545 4 0 0.0 0.0 0.00 1.88 1.85 97 1006.5
20260507025046 4 0 0.0 0.0 0.00 1.88 1.85 97 1006.6
20260507024557 4 0 0.0 0.0 0.00 1.88 1.85 97 1006.9
20260507024046 4 0 0.0 0.0 0.00 1.88 1.85 97 1006.9
20260507023545 4 304 0.0 1.6 0.00 1.88 1.85 97 1006.9
20260507023110 4 304 0.0 1.6 0.00 1.88 1.85 97 1007.1
20260507022548 4 304 0.0 3.2 0.00 1.88 1.85 97 1007.0
20260507022047 4 0 0.0 3.2 0.03 1.88 1.85 97 1007.0
20260507021557 4 285 0.0 4.8 0.03 1.88 1.85 97 1006.9
20260507021049 5 0 0.0 4.8 0.03 1.88 1.85 97 1006.7
20260507020547 5 328 1.6 4.8 0.03 1.88 1.85 97 1006.8
20260507020052 5 304 1.6 4.8 0.03 1.88 1.85 97 1006.8
20260507015546 5 291 0.0 1.6 0.03 1.88 1.85 97 1006.7
20260507015044 5 288 0.0 3.2 0.03 1.88 1.85 97 1006.4
20260507014606 5 0 0.0 3.2 0.03 1.88 1.85 97 1006.6
20260507014046 5 269 0.0 3.2 0.05 1.88 1.85 97 1006.8
20260507013543 5 299 0.0 3.2 0.05 1.88 1.85 97 1006.9
20260507013110 5 0 0.0 3.2 0.05 1.88 1.85 97 1007.0
20260507012543 5 285 0.0 3.2 0.05 1.88 1.85 97 1006.9
20260507012045 5 283 0.0 3.2 0.03 1.85 1.83 97 1006.8
20260507011552 5 294 0.0 1.6 0.03 1.85 1.83 97 1006.9
20260507011047 5 293 0.0 3.2 0.03 1.85 1.83 97 1007.0
20260507010545 5 334 0.0 4.8 0.03 1.85 1.83 97 1006.7
20260507010058 5 284 0.0 4.8 0.03 1.85 1.83 97 1006.9
20260507005547 5 313 1.6 4.8 0.03 1.85 1.83 97 1006.8
20260507005046 5 281 1.6 4.8 0.03 1.85 1.83 97 1006.7
20260507004552 5 293 1.6 3.2 0.03 1.85 1.83 97 1006.4
20260507004044 5 340 0.0 1.6 0.00 1.83 1.80 97 1006.2
20260507003547 5 0 0.0 1.6 0.03 1.83 1.80 97 1006.3
20260507003051 5 0 0.0 1.6 0.03 1.83 1.80 97 1006.3
20260507002544 5 0 0.0 1.6 0.03 1.83 1.80 97 1006.0
20260507002044 5 328 0.0 3.2 0.03 1.83 1.80 97 1005.9
20260507001612 5 314 0.0 3.2 0.05 1.83 1.80 97 1005.9
20260507001049 5 356 0.0 3.2 0.05 1.83 1.80 97 1005.9
20260507000546 5 302 0.0 3.2 0.05 1.83 1.80 97 1005.8
20260507000051 5 274 0.0 1.6 0.08 1.83 1.80 97 1005.8
20260506235544 5 0 0.0 3.2 0.08 1.83 1.80 97 1005.7
20260506235045 5 0 0.0 3.2 0.08 1.83 1.80 97 1005.4
20260506234548 5 252 0.0 3.2 0.08 1.83 1.80 97 1005.2
20260506234048 5 2 1.6 3.2 0.08 1.83 1.80 97 1004.9
20260506233545 5 286 1.6 4.8 0.05 1.80 1.78 97 1005.0
20260506233059 5 272 1.6 4.8 0.05 1.80 1.78 97 1005.2
20260506232544 5 0 1.6 3.2 0.05 1.80 1.78 97 1005.1
20260506232045 5 269 1.6 3.2 0.05 1.80 1.78 97 1005.0
20260506231554 5 261 1.6 3.2 0.03 1.78 1.75 97 1004.9
20260506231044 5 299 1.6 3.2 0.03 1.78 1.75 96 1004.7
20260506230544 6 275 1.6 4.8 0.03 1.78 1.75 97 1005.1
20260506225546 6 274 1.6 4.8 0.00 1.75 1.73 96 1004.9
20260506225045 6 262 1.6 4.8 0.00 1.75 1.73 96 1004.6
20260506224556 6 276 1.6 4.8 0.00 1.75 1.73 96 1004.6
20260506224045 6 283 1.6 4.8 0.00 1.75 1.73 96 1004.6
20260506223545 6 304 1.6 4.8 0.00 1.75 1.73 96 1004.5
20260506223106 6 281 1.6 4.8 0.00 1.75 1.73 96 1004.5
20260506222548 6 272 1.6 4.8 0.00 1.75 1.73 96 1004.4
20260506222047 6 274 1.6 4.8 0.00 1.75 1.73 96 1004.3
20260506221559 6 208 0.0 3.2 0.00 1.75 1.73 95 1004.2
20260506221043 6 247 0.0 6.4 0.00 1.75 1.73 95 1004.1
20260506220545 6 283 0.0 6.4 0.00 1.75 1.73 95 1004.3
20260506220054 7 304 1.6 6.4 0.00 1.75 1.73 94 1004.3
20260506215546 7 250 1.6 6.4 0.00 1.75 1.73 95 1004.3
20260506215043 7 267 1.6 3.2 0.00 1.75 1.73 95 1004.3
20260506214558 7 259 0.0 4.8 0.00 1.75 1.73 96 1004.2
20260506214045 7 259 1.6 4.8 0.00 1.75 1.73 96 1004.2
20260506213550 7 0 1.6 4.8 0.00 1.75 1.73 96 1004.2
20260506213053 7 268 0.0 4.8 0.00 1.75 1.73 96 1004.2
20260506212544 7 178 0.0 1.6 0.00 1.75 1.73 96 1004.1
20260506212047 7 178 0.0 3.2 0.00 1.75 1.73 96 1004.3
20260506211551 7 0 0.0 3.2 0.00 1.75 1.73 96 1004.1
20260506211047 7 178 0.0 3.2 0.00 1.75 1.73 97 1004.1
20260506210544 7 178 0.0 1.6 0.03 1.75 1.73 97 1004.0
20260506205543 7 0 0.0 1.6 0.05 1.91 1.73 96 1004.1
20260506205045 7 178 0.0 1.6 0.05 1.91 1.73 97 1004.1
20260506204552 7 0 0.0 1.6 0.08 1.91 1.73 97 1004.0
20260506204045 7 178 0.0 1.6 0.08 1.91 1.73 97 1004.0
20260506203543 7 0 0.0 1.6 0.08 1.91 1.73 97 1004.0
20260506203055 7 0 0.0 1.6 0.08 1.91 1.73 97 1004.0
20260506202548 6 178 0.0 1.6 0.08 1.91 1.73 97 1004.1
20260506202045 6 178 0.0 1.6 0.08 1.91 1.73 96 1004.1
20260506201549 6 0 0.0 1.6 0.10 1.91 1.73 96 1004.2
20260506201048 7 178 0.0 3.2 0.10 1.91 1.73 96 1004.0
20260506200544 7 178 0.0 3.2 0.10 1.88 1.70 96 1004.1
20260506200130 7 0 0.0 3.2 0.08 1.85 1.68 97 1004.0
20260506195544 7 0 0.0 3.2 0.08 1.91 1.68 96 1004.0
20260506195046 7 178 1.6 3.2 0.05 1.88 1.65 96 1004.2
20260506194609 7 178 0.0 1.6 0.08 1.88 1.65 97 1004.2
20260506194043 7 0 0.0 1.6 0.10 1.88 1.65 97 1004.0
20260506193546 7 0 1.6 1.6 0.10 1.88 1.65 97 1004.0
20260506193051 7 178 1.6 3.2 0.10 1.88 1.65 97 1004.0
20260506192544 7 0 0.0 3.2 0.10 1.88 1.65 97 1004.1
20260506192044 7 178 0.0 4.8 0.10 1.88 1.65 97 1004.0
20260506191552 7 178 0.0 4.8 0.08 1.85 1.63 96 1004.2
20260506191044 7 178 1.6 4.8 0.08 1.85 1.63 97 1004.2
20260506190546 7 178 1.6 4.8 0.05 1.83 1.60 96 1004.1
20260506190048 7 178 0.0 3.2 0.05 1.83 1.60 96 1004.2
20260506185546 7 0 0.0 3.2 0.08 1.83 1.60 96 1004.0
20260506185044 7 178 1.6 1.6 0.08 1.83 1.60 96 1004.1
20260506184556 7 178 1.6 1.6 0.05 1.80 1.57 96 1004.0
20260506184048 7 178 0.0 3.2 0.05 1.78 1.55 96 1004.0
20260506183548 8 178 0.0 3.2 0.08 1.78 1.55 96 1004.0
20260506183058 8 178 1.6 3.2 0.10 1.78 1.55 96 1004.1
20260506182544 8 178 0.0 3.2 0.15 1.78 1.55 96 1004.0
20260506182044 8 178 0.0 3.2 0.23 1.78 1.55 96 1004.1
20260506181559 9 178 1.6 3.2 0.30 1.78 1.55 96 1003.9
20260506181044 9 0 0.0 1.6 0.33 1.78 1.55 96 1004.2
20260506180545 9 178 0.0 3.2 0.38 1.78 1.55 96 1004.3
20260506175548 10 178 0.0 3.2 0.36 1.75 1.52 97 1004.4
20260506175044 10 178 0.0 1.6 0.38 1.75 1.52 97 1004.4
20260506174553 9 0 0.0 0.0 0.36 1.73 1.47 97 1004.6
20260506174047 9 0 0.0 3.2 0.38 1.73 1.47 96 1004.6
20260506173548 9 0 0.0 3.2 0.38 1.70 1.47 96 1004.8
20260506173116 10 0 0.0 3.2 0.38 1.68 1.45 96 1004.8
20260506172546 10 178 0.0 3.2 0.36 1.63 1.40 96 1004.8
20260506172045 10 0 1.6 3.2 0.30 1.55 1.32 95 1004.8
20260506171601 11 178 3.2 3.2 0.25 1.47 1.24 96 1004.7
20260506171047 11 178 0.0 3.2 0.23 1.45 1.22 98 1004.4
20260506170543 11 0 0.0 1.6 0.20 1.40 1.17 98 1004.7
20260506170053 11 178 0.0 0.0 0.23 1.40 1.17 97 1004.6
20260506165546 11 0 0.0 3.2 0.23 1.40 1.17 97 1004.7
20260506165046 11 0 0.0 3.2 0.23 1.37 1.14 97 1004.8
20260506164558 11 178 1.6 3.2 0.25 1.37 1.14 96 1004.8
20260506164045 11 178 1.6 3.2 0.25 1.32 1.12 98 1004.8
20260506163545 12 178 0.0 1.6 0.23 1.32 1.09 98 1004.7
20260506163107 11 0 0.0 1.6 0.23 1.30 1.07 98 1004.8
20260506162549 11 178 0.0 3.2 0.23 1.27 1.04 98 1004.8
20260506162047 11 178 0.0 3.2 0.23 1.24 1.02 98 1005.0
20260506161558 11 0 0.0 1.6 0.20 1.22 0.99 98 1005.0
20260506161046 11 0 0.0 1.6 0.23 1.22 0.99 98 1005.1
20260506160545 11 0 0.0 1.6 0.23 1.19 0.97 98 1005.2
20260506160105 10 0 0.0 1.6 0.20 1.17 0.94 98 1005.4
20260506155545 10 0 0.0 1.6 0.23 1.17 0.94 98 1005.3
20260506155045 10 178 0.0 0.0 0.23 1.14 0.91 97 1005.4
20260506154553 10 178 0.0 1.6 0.20 1.12 0.89 97 1005.5
20260506154045 10 0 0.0 1.6 0.20 1.09 0.86 97 1005.5
20260506153545 10 178 0.0 3.2 0.18 1.07 0.84 97 1005.7
20260506153055 10 0 1.6 3.2 0.20 1.07 0.84 97 1005.8
20260506152545 10 178 1.6 3.2 0.18 1.04 0.81 97 1005.7
20260506152048 10 0 0.0 1.6 0.18 1.02 0.79 97 1005.6
20260506151554 10 178 0.0 0.0 0.18 1.02 0.79 97 1005.5
20260506151045 10 0 0.0 0.0 0.15 0.99 0.76 97 1005.7
20260506150545 10 178 0.0 0.0 0.15 0.97 0.74 97 1006.0
20260506150058 10 0 0.0 0.0 0.13 0.94 0.71 97 1006.0
20260506145548 10 0 0.0 0.0 0.15 0.94 0.71 97 1006.0
20260506145045 10 178 0.0 0.0 0.13 0.91 0.69 97 1005.8
20260506144555 10 0 0.0 0.0 0.15 0.91 0.69 97 1006.1
20260506144045 9 178 0.0 0.0 0.13 0.89 0.66 97 1006.1
20260506143545 9 0 0.0 1.6 0.15 0.89 0.66 97 1006.1
20260506143055 9 0 0.0 1.6 0.13 0.86 0.64 97 1006.1
20260506142544 9 0 0.0 1.6 0.15 0.86 0.64 97 1006.2
20260506142047 9 0 0.0 1.6 0.13 0.84 0.61 97 1006.2
20260506141556 9 178 0.0 1.6 0.15 0.84 0.61 97 1006.1
20260506141045 9 0 0.0 1.6 0.18 0.84 0.61 97 1006.1
20260506140545 10 0 0.0 1.6 0.15 0.81 0.58 97 1006.2
20260506140053 10 178 0.0 1.6 0.18 0.81 0.58 97 1006.2
20260506135543 9 0 0.0 0.0 0.18 0.79 0.56 97 1006.2
20260506135043 9 0 0.0 1.6 0.20 0.79 0.56 97 1006.2
20260506134615 9 178 0.0 1.6 0.18 0.76 0.53 97 1006.3
20260506134046 9 178 0.0 1.6 0.20 0.76 0.53 97 1006.4
20260506133544 9 0 0.0 1.6 0.18 0.74 0.51 97 1006.4
20260506133051 9 0 0.0 1.6 0.20 0.74 0.51 97 1006.5
20260506132543 9 178 0.0 1.6 0.18 0.71 0.48 97 1006.6
20260506132045 10 178 0.0 0.0 0.18 0.71 0.48 97 1006.4
20260506131607 9 0 0.0 0.0 0.18 0.69 0.46 97 1006.5
20260506131044 9 0 0.0 1.6 0.15 0.66 0.43 97 1006.5
20260506130543 9 0 0.0 1.6 0.15 0.66 0.43 97 1006.7
20260506130052 9 0 0.0 3.2 0.13 0.64 0.41 97 1006.7
20260506125544 9 0 0.0 3.2 0.10 0.61 0.38 97 1006.6
20260506125045 9 0 1.6 4.8 0.08 0.58 0.36 97 1006.9
20260506124557 9 0 0.0 4.8 0.08 0.58 0.36 97 1006.9
20260506124044 9 178 1.6 3.2 0.08 0.56 0.33 97 1007.1
20260506123544 9 0 0.0 1.6 0.08 0.56 0.33 97 1006.9
20260506123048 9 0 0.0 1.6 0.05 0.53 0.30 97 1006.8
20260506122544 9 0 0.0 1.6 0.05 0.53 0.30 97 1006.8
20260506122043 10 178 0.0 0.0 0.05 0.53 0.30 97 1007.0
20260506121554 10 0 0.0 0.0 0.03 0.51 0.28 97 1006.9
20260506121045 10 0 0.0 1.6 0.03 0.51 0.28 97 1006.9
20260506120545 10 0 0.0 1.6 0.03 0.51 0.28 97 1007.0
20260506120051 10 178 0.0 3.2 0.03 0.51 0.28 97 1007.0
20260506115544 10 0 0.0 3.2 0.03 0.51 0.28 97 1006.9
20260506115044 10 172 1.6 3.2 0.03 0.51 0.28 97 1007.2
20260506114552 10 0 0.0 1.6 0.03 0.51 0.28 97 1007.0
20260506114043 10 178 0.0 1.6 0.00 0.48 0.25 97 1007.0
20260506113543 10 0 1.6 1.6 0.00 0.48 0.25 97 1007.2
20260506113046 10 0 0.0 0.0 0.00 0.48 0.25 97 1006.8
20260506112545 10 178 0.0 0.0 0.00 0.48 0.25 97 1007.0
20260506112045 10 0 0.0 0.0 0.00 0.48 0.25 97 1007.0
20260506111608 10 0 0.0 1.6 0.00 0.48 0.25 97 1007.1
20260506111042 10 0 0.0 1.6 0.00 0.48 0.25 97 1007.1
20260506110543 10 0 0.0 0.0 0.00 0.48 0.25 97 1007.1
20260506110051 9 0 0.0 0.0 0.00 0.48 0.25 97 1007.0
20260506105544 9 0 0.0 0.0 0.00 0.48 0.25 97 1007.0
20260506105042 9 0 0.0 0.0 0.00 0.48 0.25 97 1006.8